Content
SEND FEEDBACK

Daily
Averages
Monthly
Summary
United States of America

LIHUE, HAWAII


Home > North America > United States > Hawaii
Elevation: 103 feet     Latitude: 21 59N     Longitude: 159 21W

WEATHER
 
SELECT A DAY
Number of Records: 219,234;   Date Range: 1/1/95 - 7/29/14
 
SHARE

PRINT THIS DATA

[ ← Previous Day ]
WEATHER ALMANAC - FEBRUARY 18, 2013
[ Next Day → ]
[ °C ]   °F
Weather ElementAverageHighLow
Temperature69.6 °F75.9 °F (12:53 pm) (10:53 pm)
Dewpoint62.1 °F69.8 °F (7:00 am) (7:00 pm)
Humidity76.8 %94 % (7:00 am)61 % (4:53 pm)
Barometer30.17 in30.21 in (9:53 am)30.13 in (2:53 pm)
Wind Speed22.2 mph27.6 mph (12:53 am)
Wind Gust35.7 mph (7:53 am)
Weather ElementAverage
Visibility9.9 mi
Wind DirectionENE (56.5 °)

Weather ElementTotal
Precipitation---
Heating Degree Days27.1 (Base 65)
Averaged from 31 records on February 18, 2013
WEATHER CONDITIONS BREAKOUT
WIND DIRECTION BREAKOUT
WEATHER BY HOUR - FEBRUARY 18, 2013
[ °C ]   °F
Local TimeTemperatureDewpointHumidityBarometerVisibilityWind DirectionWind SpeedGust SpeedPrecipitationEventsConditions
12:53 AM72.0 °F62.1 °F71 %30.19 in10.0 miENE (60°)27.6 mph34.5 mphMostly Cloudy
1:53 AM71.1 °F62.8 °F75 %30.17 in10.0 miENE (60°)24.2 mph32.2 mphPartly Cloudy
2:53 AM71.1 °F62.1 °F73 %30.17 in10.0 miNE (50°)24.2 mph32.2 mphScattered Clouds
3:53 AM71.1 °F66.9 °F87 %30.16 in10.0 miNE (50°)21.9 mphMostly Cloudy
4:53 AM71.1 °F66.9 °F87 %30.16 in10.0 miNE (50°)24.2 mph29.9 mphOvercast
5:38 AM71.6 °F66.2 °F83 %30.17 in10.0 miENE (60°)20.7 mph28.8 mphOvercast
5:53 AM71.1 °F66.9 °F87 %30.17 in10.0 miNE (50°)20.7 mph29.9 mphOvercast
6:16 AM71.6 °F66.2 °F83 %30.17 in10.0 miENE (60°)24.2 mph31.1 mphScattered Clouds
6:53 AM71.1 °F68.0 °F90 %30.18 in10.0 miENE (60°)20.7 mph32.2 mphMostly Cloudy
7:00 AM71.6 °F69.8 °F94 %30.18 in10.0 miENE (60°)24.2 mph29.9 mphMostly Cloudy
7:23 AM71.6 °F66.2 °F83 %30.19 in10.0 miENE (60°)21.9 mphOvercast
7:53 AM70.0 °F66.9 °F90 %30.19 in10.0 miENE (60°)24.2 mph35.7 mphOvercast
8:53 AM73.0 °F66.0 °F79 %30.20 in10.0 miENE (60°)23.0 mph35.7 mphMostly Cloudy
9:53 AM75.0 °F64.0 °F69 %30.21 in10.0 miENE (70°)26.5 mph32.2 mphMostly Cloudy
10:53 AM73.0 °F63.0 °F71 %30.21 in10.0 miENE (70°)26.5 mph33.4 mphOvercast
11:53 AM75.0 °F66.0 °F73 %30.19 in10.0 miENE (60°)21.9 mph29.9 mphOvercast
12:53 PM75.9 °F64.9 °F69 %30.17 in10.0 miENE (60°)23.0 mph31.1 mphMostly Cloudy
1:53 PM73.9 °F64.0 °F71 %30.14 in10.0 miENE (60°)21.9 mph31.1 mphMostly Cloudy
2:53 PM73.9 °F64.0 °F71 %30.13 in10.0 miENE (60°)23.0 mph28.8 mphOvercast
3:43 PM71.6 °F62.6 °F73 %30.13 in7.0 miENE (70°)19.6 mph29.9 mph0.00 inRainLight Rain
3:50 PM71.6 °F64.4 °F78 %30.13 in10.0 miENE (60°)19.6 mph25.3 mph0.00 inRainLight Rain
3:53 PM73.0 °F66.9 °F81 %30.13 in10.0 miENE (60°)20.7 mph0.00 inOvercast
4:53 PM73.0 °F59.0 °F61 %30.13 in10.0 miNE (50°)23.0 mphOvercast
5:53 PM72.0 °F59.0 °F64 %30.14 in10.0 miNE (50°)20.7 mphOvercast
6:53 PM71.1 °F59.0 °F66 %30.16 in10.0 miNE (50°)23.0 mph27.6 mphMostly Cloudy
7:53 PM71.1 °F59.0 °F66 %30.17 in10.0 miENE (60°)23.0 mph28.8 mphPartly Cloudy
8:53 PM71.1 °F61.0 °F70 %30.19 in10.0 miNE (50°)18.4 mph27.6 mph0.00 inMostly Cloudy
9:53 PM70.0 °F64.9 °F84 %30.20 in10.0 miNE (50°)20.7 mph0.00 inOvercast
10:53 PM0.0 °F0.0 °F30.21 in10.0 miNE (50°)18.4 mph0.00 inPartly Cloudy
11:51 PM69.8 °F62.6 °F78 %30.21 in10.0 miNE (40°)18.4 mph0.00 inOvercast
11:53 PM70.0 °F63.0 °F78 %30.21 in10.0 miNE (40°)18.4 mph0.00 inOvercast
Hourly data recorded from PHLI, located miles away from Lihue, Hawaii







STORIES FROM OUR PARTNERS